Tracking 35237 objects as of 4-Sep-2026
HD Live streaming from Space Station
objects crossing your sky now

STARLINK-4751

Track STARLINK-4751 now!
10-day predictions
STARLINK-4751 is classified as:


NORAD ID: 53825
Int'l Code: 2022-114H
Launch date: September 19, 2022
Source: United States (US)
Launch site: AIR FORCE EASTERN TEST RANGE (AFETR)
Your satellite tracking list
Your tracking list is empty




NASA's NSSDC Master Catalog

Two Line Element Set (TLE):
1 53825U 22114H   26247.30435400 -.00000113  00000-0  76666-5 0  9995
2 53825  53.1590 215.5870 0001128  80.7850 279.3281 15.35396210219881
Source of the keplerian elements: AFSPC